This is the latest recevied weather packets stored in our database for station/object KM4CBK. If no packets are shown the sender has not sent any weather packets the latest 10 day(s).
| Time | Temp. | Humidity | Pressure | Rain* | Wind** | Luminosity | Snow |
|---|---|---|---|---|---|---|---|
| 1777493728 | 27.22° C | 80% | 1010.5 hPa | 0 mm | - | 164 W/m² | - |
| 1777493426 | 27.22° C | 80% | 1010.5 hPa | 0 mm | - | 232 W/m² | - |
| 1777493121 | 27.22° C | 78% | 1010.5 hPa | 0 mm | - | 142 W/m² | - |
| 1777492818 | 27.78° C | 80% | 1010.4 hPa | 0 mm | - | 363 W/m² | - |
| 1777492514 | 26.67° C | 82% | 1010.7 hPa | 0 mm | - | 303 W/m² | - |
| 1777492210 | 26.11° C | 81% | 1010.7 hPa | 0 mm | - | 179 W/m² | - |
| 1777491908 | 26.67° C | 83% | 1010.9 hPa | 0 mm | - | 184 W/m² | - |
| 1777491604 | 26.11° C | 83% | 1010.9 hPa | 0 mm | - | 215 W/m² | - |
| 1777491302 | 26.11° C | 81% | 1010.9 hPa | 0 mm | - | 171 W/m² | - |
| 1777490998 | 26.11° C | 79% | 1011 hPa | 0 mm | - | 177 W/m² | - |
| 1777490694 | 26.67° C | 80% | 1011.1 hPa | 0 mm | - | 148 W/m² | - |
| 1777490390 | 27.22° C | 81% | 1010.9 hPa | 0 mm | - | 204 W/m² | - |
| 1777490087 | 26.67° C | 81% | 1011.1 hPa | 0 mm | - | 280 W/m² | - |
| 1777489784 | 26.67° C | 82% | 1011.4 hPa | 0 mm | - | 111 W/m² | - |
| 1777489482 | 26.67° C | 82% | 1011.4 hPa | 0 mm | - | 172 W/m² | - |
| 1777489179 | 27.22° C | 82% | 1011.4 hPa | 0 mm | - | 184 W/m² | - |
| 1777488876 | 26.67° C | 84% | 1011.9 hPa | 0 mm | - | 219 W/m² | - |
| 1777488573 | 26.11° C | 85% | 1011.7 hPa | 0 mm | - | 232 W/m² | - |
| 1777488270 | 26.11° C | 82% | 1011.8 hPa | 0 mm | - | 125 W/m² | - |
| 1777487969 | 26.67° C | 80% | 1011.8 hPa | 0 mm | - | 126 W/m² | - |
| 1777487666 | 26.67° C | 83% | 1011.8 hPa | 0 mm | - | 254 W/m² | - |
| 1777487362 | 26.67° C | 81% | 1011.7 hPa | 0 mm | - | 185 W/m² | - |
| 1777487061 | 26.67° C | 81% | 1012 hPa | 0 mm | - | 148 W/m² | - |
| 1777486756 | 27.22° C | 77% | 1012 hPa | 0 mm | - | 213 W/m² | - |
| 1777486454 | 26.67° C | 77% | 1011.9 hPa | 0 mm | - | 174 W/m² | - |
* Rain latest hour (hover to see other rain measurements)
** Current wind speed in m/s (hover to see current wind gust speed)